TimeEDT,TemperatureF,Dew PointF,Humidity,Sea Level PressureIn,VisibilityMPH,Wind Direction,Wind SpeedMPH,Gust SpeedMPH,PrecipitationIn,Events,Conditions,WindDirDegrees,DateUTC
12:53 AM,55.9,50.0,80,30.14,10.0,West,3.5,-,0.00,Rain,Light Rain,260,2013-04-17 04:53:00
1:40 AM,55.4,50.0,82,30.13,10.0,WSW,3.5,-,0.00,,Overcast,240,2013-04-17 05:40:00
1:53 AM,55.9,50.0,80,30.12,10.0,Calm,Calm,-,0.00,,Overcast,0,2013-04-17 05:53:00
2:53 AM,55.9,51.1,84,30.13,10.0,Calm,Calm,-,N/A,,Overcast,0,2013-04-17 06:53:00
3:39 AM,55.4,51.8,88,30.14,3.0,Variable,5.8,-,0.00,Rain,Light Rain,0,2013-04-17 07:39:00
3:53 AM,54.0,51.1,90,30.15,6.0,NE,9.2,-,0.00,,Overcast,50,2013-04-17 07:53:00
4:16 AM,51.8,46.4,82,30.15,10.0,NNE,5.8,-,N/A,,Overcast,30,2013-04-17 08:16:00
4:53 AM,51.1,44.1,77,30.15,10.0,Calm,Calm,-,N/A,,Overcast,0,2013-04-17 08:53:00
5:53 AM,51.1,43.0,74,30.16,10.0,Calm,Calm,-,N/A,,Overcast,0,2013-04-17 09:53:00
6:18 AM,51.8,39.2,62,30.17,10.0,North,8.1,-,N/A,,Overcast,360,2013-04-17 10:18:00
6:53 AM,51.1,41.0,68,30.18,10.0,NNE,4.6,-,N/A,,Overcast,30,2013-04-17 10:53:00
7:53 AM,51.1,35.1,54,30.22,10.0,NNW,5.8,-,N/A,,Mostly Cloudy,340,2013-04-17 11:53:00
8:53 AM,52.0,34.0,50,30.24,10.0,NW,9.2,-,N/A,,Clear,320,2013-04-17 12:53:00
10:53 AM,57.0,34.0,42,30.24,10.0,North,12.7,-,N/A,,Clear,10,2013-04-17 14:53:00
11:53 AM,59.0,33.1,38,30.23,10.0,NW,9.2,17.3,N/A,,Clear,320,2013-04-17 15:53:00
12:53 PM,59.0,33.1,38,30.22,10.0,NW,10.4,18.4,N/A,,Clear,320,2013-04-17 16:53:00
1:53 PM,62.1,30.9,31,30.22,10.0,NNW,8.1,18.4,N/A,,Clear,330,2013-04-17 17:53:00
2:53 PM,63.0,30.9,30,30.21,10.0,WNW,10.4,-,N/A,,Clear,300,2013-04-17 18:53:00
3:53 PM,64.0,30.0,28,30.22,10.0,WNW,8.1,-,N/A,,Clear,290,2013-04-17 19:53:00
4:53 PM,64.9,30.0,27,30.21,10.0,Variable,6.9,-,N/A,,Clear,0,2013-04-17 20:53:00
5:53 PM,64.9,30.0,27,30.24,10.0,NNE,5.8,-,N/A,,Clear,30,2013-04-17 21:53:00
6:08 PM,62.6,30.2,30,30.24,10.0,NE,10.4,-,N/A,,Clear,50,2013-04-17 22:08:00
6:53 PM,62.1,30.9,31,30.26,10.0,NNE,10.4,-,N/A,,Clear,30,2013-04-17 22:53:00
7:53 PM,59.0,30.9,35,30.27,10.0,NNW,4.6,-,N/A,,Clear,340,2013-04-17 23:53:00
8:53 PM,54.0,33.1,45,30.28,10.0,Calm,Calm,-,N/A,,Clear,0,2013-04-18 00:53:00
9:53 PM,46.9,36.0,66,30.30,10.0,Calm,Calm,-,N/A,,Clear,0,2013-04-18 01:53:00
10:53 PM,45.0,36.0,71,30.29,10.0,SW,3.5,-,N/A,,Clear,230,2013-04-18 02:53:00
11:53 PM,43.0,35.1,74,30.31,10.0,Calm,Calm,-,N/A,,Clear,0,2013-04-18 03:53:00